Find STARLINK-37945

NORAD ID: 799501020 Int'l Des: 2026-143W Constellation: starlink operational

Aktuelle Ansicht

3D-Globus wird geladen...

About STARLINK-37945

STARLINK-37945 (NORAD 799501020) is a starlink constellation satellite launched Jun 15, 2026

Über STARLINK-37945

Beschreibung wird geladen...

Nächste Überflüge

Passes for default location (London). Set your location on the main map for personalized predictions.

Höhenverlauf

Loading altitude history...

Zweizeiliger Elementsatz

1 99999C 2026143W 26173.19215278 .00491350 00000-0 732900-4 0 1738
2 99999 97.2817 216.0541 0011281 272.5459 210.1575 16.04428313 11
Epoch: 22. Juni 2026 • Age: 3 hours